K7AZ Weather Reports


Display with metric or nautical units.
time (UTC)temp
F
wind
direction
speed
MPH
gust
MPH
rain 1hr
in
rain 24hr
in
rain mn
in
humidity
%
barometer
mb
20260905051003 57 325 3.0 0.0 0.00 0.00 0.00 75 1012.9
20260905050457 57 326 2.0 0.0 0.00 0.00 0.00 76 1012.7
20260905045951 57 316 3.0 0.0 0.00 0.00 0.00 76 1012.8
20260905045445 56 309 3.0 0.0 0.00 0.00 0.00 76 1012.8
20260905044939 56 269 1.0 0.0 0.00 0.00 0.00 76 1012.8
20260905044433 56 278 3.0 0.0 0.00 0.00 0.00 76 1012.8
20260905043927 56 312 2.0 0.0 0.00 0.00 0.00 76 1012.8
20260905043421 57 313 1.0 0.0 0.00 0.00 0.00 76 1012.8
20260905042915 57 307 0.0 0.0 0.00 0.00 0.00 76 1012.7
20260905042409 57 321 2.0 0.0 0.00 0.00 0.00 76 1012.6
20260905041903 57 342 2.0 0.0 0.00 0.00 0.00 75 1012.6
20260905041357 57 343 2.0 0.0 0.00 0.00 0.00 76 1012.5
20260905040851 57 327 2.0 0.0 0.00 0.00 0.00 76 1012.5
20260905040345 57 310 3.0 0.0 0.00 0.00 0.00 76 1012.5
20260905035839 56 283 4.0 14.0 0.00 0.00 0.00 76 1012.5
20260905035333 56 264 3.0 14.0 0.00 0.00 0.00 76 1012.4
20260905034827 56 258 3.0 13.0 0.00 0.00 0.00 76 1012.4
20260905034321 56 264 3.0 0.0 0.00 0.00 0.00 76 1012.4
20260905033815 56 118 0.0 0.0 0.00 0.00 0.00 76 1012.4
20260905033309 56 104 0.0 0.0 0.00 0.00 0.00 76 1012.3
20260905032803 56 183 1.0 0.0 0.00 0.00 0.00 76 1012.3
20260905032257 56 168 0.0 0.0 0.00 0.00 0.00 76 1012.2
20260905031751 56 98 0.0 0.0 0.00 0.00 0.00 76 1012.3
20260905031245 56 75 0.0 0.0 0.00 0.00 0.00 76 1012.2
20260905030739 56 104 0.0 0.0 0.00 0.00 0.00 76 1012.1
20260905030233 56 92 0.0 0.0 0.00 0.00 0.00 76 1012.0
20260905025727 57 105 0.0 0.0 0.00 0.00 0.00 76 1012.0
20260905025221 57 97 0.0 0.0 0.00 0.00 0.00 76 1012.0
20260905024715 57 102 0.0 0.0 0.00 0.00 0.00 77 1012.0
20260905024209 57 82 0.0 0.0 0.00 0.00 0.00 77 1011.9
20260905023703 57 87 0.0 0.0 0.00 0.00 0.00 77 1011.8
20260905023157 57 79 1.0 0.0 0.00 0.00 0.00 77 1011.8
20260905022651 58 100 0.0 0.0 0.00 0.00 0.00 77 1011.8
20260905022145 58 103 0.0 0.0 0.00 0.00 0.00 77 1011.7
20260905021639 58 132 1.0 0.0 0.00 0.00 0.00 77 1011.8
20260905021133 59 134 1.0 0.0 0.00 0.00 0.00 77 1011.7
20260905020627 60 152 1.0 0.0 0.00 0.00 0.00 77 1011.7
20260905020121 61 131 0.0 0.0 0.00 0.00 0.00 77 1011.7
20260905015615 62 106 0.0 0.0 0.00 0.00 0.00 77 1011.6
20260905015109 63 207 1.0 12.0 0.00 0.00 0.00 77 1011.7
20260905014603 63 208 1.0 12.0 0.00 0.00 0.00 78 1011.7
20260905014057 64 216 1.0 13.0 0.00 0.00 0.00 78 1011.6
20260905013551 65 242 2.0 13.0 0.00 0.00 0.00 78 1011.7
20260905013045 65 246 3.0 12.0 0.00 0.00 0.00 78 1011.7
20260905012539 66 241 3.0 13.0 0.00 0.00 0.00 78 1011.6
20260905012033 66 241 3.0 13.0 0.00 0.00 0.00 78 1011.7
20260905011527 66 253 4.0 15.0 0.00 0.00 0.00 78 1011.7
20260905011021 67 233 1.0 15.0 0.00 0.00 0.00 78 1011.7
20260905010515 67 172 1.0 0.0 0.00 0.00 0.00 79 1011.6
20260905010009 68 187 1.0 0.0 0.00 0.00 0.00 79 1011.7
20260905005503 68 201 1.0 0.0 0.00 0.00 0.00 79 1011.6
20260905004957 68 165 1.0 12.0 0.00 0.00 0.00 79 1011.6
20260905004451 68 157 1.0 12.0 0.00 0.00 0.00 79 1011.6
20260905003945 68 219 1.0 11.0 0.00 0.00 0.00 79 1011.7
20260905003439 68 215 1.0 14.0 0.00 0.00 0.00 79 1011.6
20260905002933 69 201 2.0 16.0 0.00 0.00 0.00 80 1011.7
20260905002427 69 132 1.0 16.0 0.00 0.00 0.00 80 1011.7
20260905001921 69 222 2.0 16.0 0.00 0.00 0.00 80 1011.6
20260905001415 69 180 2.0 16.0 0.00 0.00 0.00 80 1011.8
20260905000909 69 121 1.0 12.0 0.00 0.00 0.00 80 1011.7
20260905000403 69 145 1.0 11.0 0.00 0.00 0.00 80 1011.7
20260904235857 69 212 2.0 11.0 0.00 0.00 0.00 80 1011.7
20260904235351 70 145 1.0 10.0 0.00 0.00 0.00 81 1011.7
20260904234845 70 177 1.0 11.0 0.00 0.00 0.00 81 1011.7
20260904234339 70 115 1.0 12.0 0.00 0.00 0.00 81 1011.7
20260904233833 70 102 1.0 12.0 0.00 0.00 0.00 81 1011.7
20260904233327 70 121 1.0 14.0 0.00 0.00 0.00 81 1011.8
20260904232821 70 113 1.0 14.0 0.00 0.00 0.00 81 1011.7
20260904232315 71 213 2.0 13.0 0.00 0.00 0.00 81 1011.8
20260904231809 71 242 3.0 13.0 0.00 0.00 0.00 81 1011.8
20260904231303 72 169 2.0 13.0 0.00 0.00 0.00 81 1011.7
20260904230757 71 213 2.0 13.0 0.00 0.00 0.00 82 1011.7
20260904230251 72 196 1.0 13.0 0.00 0.00 0.00 82 1011.7
20260904225745 71 237 4.0 13.0 0.00 0.00 0.00 82 1011.8
20260904225239 72 247 3.0 15.0 0.00 0.00 0.00 82 1011.8
20260904224733 72 265 5.0 15.0 0.00 0.00 0.00 82 1011.8
20260904224227 72 273 4.0 11.0 0.00 0.00 0.00 82 1011.9
20260904223721 73 272 4.0 11.0 0.00 0.00 0.00 82 1011.9
20260904223215 74 274 3.0 12.0 0.00 0.00 0.00 82 1011.8
20260904222709 73 275 5.0 12.0 0.00 0.00 0.00 82 1011.8
20260904222203 74 260 3.0 12.0 0.00 0.00 0.00 82 1011.8
20260904221657 74 265 3.0 13.0 0.00 0.00 0.00 82 1011.9
20260904221151 75 258 4.0 13.0 0.00 0.00 0.00 82 1011.9
20260904220645 74 242 3.0 13.0 0.00 0.00 0.00 81 1011.9
20260904220139 74 262 4.0 12.0 0.00 0.00 0.00 82 1012.0
20260904215633 74 252 3.0 12.0 0.00 0.00 0.00 82 1012.1
20260904215127 73 258 4.0 12.0 0.00 0.00 0.00 81 1012.0
20260904214621 74 270 4.0 13.0 0.00 0.00 0.00 81 1012.0
20260904214115 73 262 4.0 13.0 0.00 0.00 0.00 81 1012.0
20260904213609 73 257 5.0 14.0 0.00 0.00 0.00 81 1012.0
20260904213103 74 266 5.0 14.0 0.00 0.00 0.00 81 1012.0
20260904212557 74 261 4.0 13.0 0.00 0.00 0.00 81 1012.0
20260904212051 75 266 4.0 13.0 0.00 0.00 0.00 81 1012.1
20260904211545 74 274 4.0 12.0 0.00 0.00 0.00 81 1012.0
20260904211039 76 216 2.0 12.0 0.00 0.00 0.00 81 1012.1
20260904210533 74 263 4.0 12.0 0.00 0.00 0.00 81 1012.1
20260904210027 75 271 4.0 0.0 0.00 0.00 0.00 81 1012.1
20260904205521 75 283 3.0 0.0 0.00 0.00 0.00 81 1012.1
20260904205015 74 275 5.0 0.0 0.00 0.00 0.00 80 1012.1
20260904204509 75 274 3.0 0.0 0.00 0.00 0.00 80 1012.1
20260904204003 76 276 2.0 0.0 0.00 0.00 0.00 80 1012.2
20260904203457 76 275 2.0 0.0 0.00 0.00 0.00 80 1012.1
20260904202951 76 301 1.0 0.0 0.00 0.00 0.00 80 1012.2
20260904202445 76 303 1.0 0.0 0.00 0.00 0.00 79 1012.1
20260904201939 77 300 1.0 0.0 0.00 0.00 0.00 79 1012.1
20260904201433 76 272 1.0 0.0 0.00 0.00 0.00 79 1012.2
20260904200927 75 284 2.0 0.0 0.00 0.00 0.00 79 1012.2
20260904200421 75 293 1.0 0.0 0.00 0.00 0.00 79 1012.2
20260904195915 75 297 1.0 0.0 0.00 0.00 0.00 78 1012.2
20260904195409 75 270 1.0 0.0 0.00 0.00 0.00 78 1012.2
20260904194903 74 279 2.0 0.0 0.00 0.00 0.00 78 1012.3
20260904194357 74 332 1.0 0.0 0.00 0.00 0.00 78 1012.3
20260904193851 73 33 1.0 0.0 0.00 0.00 0.00 78 1012.4
20260904193345 74 288 2.0 0.0 0.00 0.00 0.00 77 1012.4
20260904192839 74 328 1.0 0.0 0.00 0.00 0.00 77 1012.5
20260904192333 73 342 1.0 0.0 0.00 0.00 0.00 77 1012.5
20260904191827 72 356 1.0 0.0 0.00 0.00 0.00 77 1012.6
20260904191321 72 349 2.0 0.0 0.00 0.00 0.00 77 1012.7
20260904190815 71 302 1.0 0.0 0.00 0.00 0.00 77 1012.7
20260904190309 70 334 2.0 0.0 0.00 0.00 0.00 77 1012.7
20260904185803 71 340 1.0 0.0 0.00 0.00 0.00 76 1012.8
20260904185257 70 307 3.0 0.0 0.00 0.00 0.00 76 1012.9
20260904184751 69 308 3.0 0.0 0.00 0.00 0.00 76 1012.9
20260904184245 69 324 3.0 0.0 0.00 0.00 0.00 76 1012.9
20260904183739 70 326 2.0 0.0 0.00 0.00 0.00 76 1012.9
20260904183233 71 324 1.0 0.0 0.00 0.00 0.00 76 1013.0
20260904182727 72 344 1.0 0.0 0.00 0.00 0.00 76 1013.0
20260904182221 71 20 1.0 0.0 0.00 0.00 0.00 76 1013.0
20260904181715 71 340 1.0 0.0 0.00 0.00 0.00 76 1013.1
20260904181209 71 356 1.0 0.0 0.00 0.00 0.00 76 1013.1
20260904180703 72 354 1.0 0.0 0.00 0.00 0.00 76 1013.2
20260904180156 72 292 1.0 0.0 0.00 0.00 0.00 76 1013.2
20260904175650 72 316 1.0 0.0 0.00 0.00 0.00 76 1013.2
20260904175144 71 273 2.0 0.0 0.00 0.00 0.00 76 1013.2
20260904174639 71 85 0.0 0.0 0.00 0.00 0.00 75 1013.2
20260904174132 70 321 0.0 0.0 0.00 0.00 0.00 76 1013.2
20260904173627 70 308 1.0 0.0 0.00 0.00 0.00 75 1013.1
20260904173121 70 308 0.0 0.0 0.00 0.00 0.00 75 1013.1
20260904172614 70 314 0.0 0.0 0.00 0.00 0.00 75 1013.1
20260904172108 69 79 0.0 0.0 0.00 0.00 0.00 75 1013.0
20260904171602 68 325 1.0 0.0 0.00 0.00 0.00 75 1013.1
20260904171056 67 329 2.0 0.0 0.00 0.00 0.00 75 1013.1
20260904170550 66 331 0.0 0.0 0.00 0.00 0.00 75 1013.1
20260904170044 67 321 1.0 0.0 0.00 0.00 0.00 75 1013.0
20260904165538 66 331 1.0 0.0 0.00 0.00 0.00 75 1013.0
20260904165032 68 15 0.0 0.0 0.00 0.00 0.00 75 1013.0
20260904164527 65 353 1.0 0.0 0.00 0.00 0.00 75 1013.0
20260904164020 65 348 1.0 0.0 0.00 0.00 0.00 75 1012.9
20260904163514 64 50 1.0 0.0 0.00 0.00 0.00 75 1012.8
20260904163008 63 6 1.0 0.0 0.00 0.00 0.00 75 1012.9
20260904162503 61 345 1.0 0.0 0.00 0.00 0.00 75 1012.8
20260904161956 61 337 3.0 0.0 0.00 0.00 0.00 75 1012.8
20260904161450 61 335 1.0 0.0 0.00 0.00 0.00 74 1012.8
20260904160944 61 0 1.0 0.0 0.00 0.00 0.00 74 1012.8
20260904160438 61 354 1.0 0.0 0.00 0.00 0.00 75 1012.8
20260904155932 60 320 1.0 0.0 0.00 0.00 0.00 75 1012.8
20260904155426 60 344 1.0 0.0 0.00 0.00 0.00 75 1012.8
20260904154920 60 333 1.0 0.0 0.00 0.00 0.00 74 1012.7
20260904154414 59 333 1.0 0.0 0.00 0.00 0.00 74 1012.7
20260904153908 59 322 1.0 0.0 0.00 0.00 0.00 74 1012.6
20260904153402 59 331 1.0 0.0 0.00 0.00 0.00 74 1012.6
20260904152856 58 324 2.0 0.0 0.00 0.00 0.00 74 1012.7
20260904152350 58 329 1.0 0.0 0.00 0.00 0.00 74 1012.7
20260904151844 58 322 2.0 0.0 0.00 0.00 0.00 74 1012.6
20260904151338 58 342 1.0 0.0 0.00 0.00 0.00 74 1012.6
20260904150832 58 333 1.0 0.0 0.00 0.00 0.00 74 1012.6
20260904150326 57 324 2.0 0.0 0.00 0.00 0.00 74 1012.5
20260904145821 57 322 2.0 0.0 0.00 0.00 0.00 74 1012.4
20260904145314 57 323 2.0 0.0 0.00 0.00 0.00 74 1012.4
20260904144808 57 314 2.0 0.0 0.00 0.00 0.00 74 1012.4
20260904144302 57 322 2.0 0.0 0.00 0.00 0.00 74 1012.4
20260904143756 57 316 2.0 0.0 0.00 0.00 0.00 74 1012.3
20260904143250 57 318 2.0 0.0 0.00 0.00 0.00 74 1012.2
20260904142744 57 329 2.0 0.0 0.00 0.00 0.00 74 1012.2
20260904142238 57 322 2.0 0.0 0.00 0.00 0.00 74 1012.2
20260904141732 57 321 1.0 0.0 0.00 0.00 0.00 74 1012.1
20260904141226 57 319 1.0 0.0 0.00 0.00 0.00 74 1012.1
20260904140720 57 313 2.0 0.0 0.00 0.00 0.00 74 1012.1
20260904140214 57 311 2.0 0.0 0.00 0.00 0.00 74 1012.1
20260904135708 57 333 2.0 0.0 0.00 0.00 0.00 74 1012.1
20260904135202 57 315 1.0 0.0 0.00 0.00 0.00 74 1012.0
20260904134656 57 336 1.0 0.0 0.00 0.00 0.00 74 1012.1
20260904134150 57 315 2.0 0.0 0.00 0.00 0.00 74 1012.0
20260904133644 57 311 3.0 0.0 0.00 0.00 0.00 74 1012.0
20260904133139 57 326 2.0 0.0 0.00 0.00 0.00 74 1012.0
20260904132632 57 310 2.0 0.0 0.00 0.00 0.00 74 1012.0
20260904132126 57 315 1.0 0.0 0.00 0.00 0.00 74 1012.0
20260904131620 57 311 2.0 0.0 0.00 0.00 0.00 74 1011.9
20260904131114 57 314 1.0 0.0 0.00 0.00 0.00 74 1011.9
20260904130608 57 317 2.0 0.0 0.00 0.00 0.00 74 1011.9
20260904125556 57 315 1.0 0.0 0.00 0.00 0.00 74 1011.9
20260904125050 57 321 3.0 0.0 0.00 0.00 0.00 74 1011.8
20260904124544 57 319 3.0 0.0 0.00 0.00 0.00 74 1011.8
20260904124038 57 327 2.0 0.0 0.00 0.00 0.00 74 1011.7
20260904123532 57 325 2.0 0.0 0.00 0.00 0.00 74 1011.7
20260904123026 57 311 2.0 0.0 0.00 0.00 0.00 74 1011.7
20260904122520 57 313 2.0 0.0 0.00 0.00 0.00 74 1011.6
20260904122014 57 309 1.0 0.0 0.00 0.00 0.00 74 1011.6
20260904121508 57 328 1.0 0.0 0.00 0.00 0.00 74 1011.6
20260904121002 57 310 3.0 0.0 0.00 0.00 0.00 74 1011.6
20260904120456 57 311 2.0 0.0 0.00 0.00 0.00 74 1011.6
20260904115950 57 311 3.0 0.0 0.00 0.00 0.00 74 1011.6
20260904115444 57 310 2.0 0.0 0.00 0.00 0.00 74 1011.7
20260904114938 57 318 3.0 0.0 0.00 0.00 0.00 74 1011.7
20260904114432 57 315 2.0 0.0 0.00 0.00 0.00 74 1011.7
20260904113926 57 342 2.0 11.0 0.00 0.00 0.00 74 1011.8
20260904113420 57 311 3.0 11.0 0.00 0.00 0.00 74 1011.7
20260904112914 57 318 3.0 0.0 0.00 0.00 0.00 74 1011.7
20260904112408 57 327 4.0 0.0 0.00 0.00 0.00 74 1011.7
20260904111902 57 313 3.0 0.0 0.00 0.00 0.00 74 1011.7
20260904111356 57 316 3.0 0.0 0.00 0.00 0.00 74 1011.7
20260904110850 57 314 3.0 0.0 0.00 0.00 0.00 74 1011.7
20260904110344 57 313 3.0 0.0 0.00 0.00 0.00 74 1011.7
20260904105838 57 312 2.0 0.0 0.00 0.00 0.00 74 1011.7
20260904105332 57 315 3.0 0.0 0.00 0.00 0.00 74 1011.7
20260904104826 57 315 3.0 0.0 0.00 0.00 0.00 74 1011.8
20260904104320 57 313 3.0 0.0 0.00 0.00 0.00 74 1011.8
20260904103814 57 326 3.0 0.0 0.00 0.00 0.00 74 1011.8
20260904103308 57 311 3.0 0.0 0.00 0.00 0.00 74 1011.8
20260904102802 57 312 2.0 0.0 0.00 0.00 0.00 74 1011.7
20260904102256 57 318 2.0 0.0 0.00 0.00 0.00 74 1011.7
20260904101750 57 322 1.0 0.0 0.00 0.00 0.00 74 1011.7
20260904101244 57 323 3.0 0.0 0.00 0.00 0.00 74 1011.7
20260904100738 57 315 3.0 0.0 0.00 0.00 0.00 74 1011.6
20260904100232 57 308 4.0 10.0 0.00 0.00 0.00 74 1011.6
20260904095726 57 315 4.0 10.0 0.00 0.00 0.00 74 1011.6
20260904095220 56 308 4.0 11.0 0.00 0.00 0.00 74 1011.6
20260904094714 56 313 6.0 11.0 0.00 0.00 0.00 74 1011.6
20260904094208 56 315 4.0 11.0 0.00 0.00 0.00 74 1011.6
20260904093702 56 310 6.0 11.0 0.00 0.00 0.00 74 1011.6
20260904093156 55 311 4.0 0.0 0.00 0.00 0.00 74 1011.6
20260904092650 55 311 4.0 0.0 0.00 0.00 0.00 74 1011.6
20260904092144 55 314 3.0 0.0 0.00 0.00 0.00 74 1011.6
20260904091638 55 315 4.0 0.0 0.00 0.00 0.00 74 1011.6
20260904091132 55 307 4.0 0.0 0.00 0.00 0.00 74 1011.5
20260904090626 55 313 3.0 0.0 0.00 0.00 0.00 74 1011.5
20260904090120 55 318 3.0 0.0 0.00 0.00 0.00 74 1011.6
20260904085614 55 327 3.0 0.0 0.00 0.00 0.00 74 1011.7
20260904085108 55 330 3.0 0.0 0.00 0.00 0.00 74 1011.7
20260904084602 55 323 2.0 0.0 0.00 0.00 0.00 74 1011.8
20260904084056 55 322 2.0 0.0 0.00 0.00 0.00 74 1011.8
20260904083550 55 320 2.0 0.0 0.00 0.00 0.00 75 1011.8
20260904083044 55 321 1.0 0.0 0.00 0.00 0.00 75 1011.8
20260904082538 55 319 2.0 0.0 0.00 0.00 0.00 75 1011.9
20260904082032 55 316 2.0 0.0 0.00 0.00 0.00 74 1011.9
20260904081526 55 315 3.0 0.0 0.00 0.00 0.00 74 1011.9
20260904081020 55 317 3.0 0.0 0.00 0.00 0.00 74 1011.9
20260904080514 56 319 3.0 0.0 0.00 0.00 0.00 74 1011.9
20260904080008 56 313 3.0 0.0 0.00 0.00 0.00 74 1012.0
20260904075502 56 320 3.0 10.0 0.00 0.00 0.00 74 1011.9
20260904074956 56 313 3.0 10.0 0.00 0.00 0.00 74 1011.9
20260904074450 56 317 3.0 0.0 0.00 0.00 0.00 74 1012.0
20260904073944 55 316 1.0 13.0 0.00 0.00 0.00 74 1012.0
20260904073438 55 314 5.0 13.0 0.00 0.00 0.00 74 1012.0
20260904072932 56 327 2.0 14.0 0.00 0.00 0.00 75 1012.0
20260904072426 55 313 7.0 14.0 0.00 0.00 0.00 75 1011.9
20260904071920 55 327 5.0 13.0 0.00 0.00 0.00 75 1011.9
20260904071414 55 309 5.0 13.0 0.00 0.00 0.00 75 1011.9
20260904070908 55 307 6.0 13.0 0.00 0.00 0.00 75 1012.0
20260904070402 55 307 6.0 17.0 0.00 0.00 0.00 75 1012.0
20260904065856 55 298 7.0 17.0 0.00 0.00 0.00 75 1011.9
20260904065350 55 299 7.0 14.0 0.00 0.00 0.00 75 1012.0
20260904064844 55 293 8.0 14.0 0.00 0.00 0.00 75 1011.9
20260904064338 55 293 8.0 16.0 0.00 0.00 0.00 75 1012.0
20260904063832 55 291 8.0 16.0 0.00 0.00 0.00 75 1012.0
20260904063326 55 286 7.0 13.0 0.00 0.00 0.00 75 1012.0
20260904062820 55 292 7.0 13.0 0.00 0.00 0.00 75 1012.0
20260904062314 55 299 4.0 11.0 0.00 0.00 0.00 75 1012.0
20260904061808 55 301 3.0 12.0 0.00 0.00 0.00 75 1012.0
20260904061302 55 300 3.0 12.0 0.00 0.00 0.00 75 1012.0
20260904060756 55 300 5.0 12.0 0.00 0.00 0.00 75 1011.9
20260904060250 55 298 5.0 12.0 0.00 0.00 0.00 75 1011.9
20260904055744 55 306 5.0 11.0 0.00 0.00 0.00 75 1011.9
20260904055238 55 309 3.0 11.0 0.00 0.00 0.00 75 1011.9
20260904054732 55 311 5.0 12.0 0.00 0.00 0.00 75 1011.8
20260904054226 55 307 5.0 12.0 0.00 0.00 0.00 75 1011.9
20260904053720 55 308 4.0 11.0 0.00 0.00 0.00 75 1011.9
20260904053214 55 304 4.0 11.0 0.00 0.00 0.00 75 1011.9
20260904052708 55 307 5.0 14.0 0.00 0.00 0.00 75 1011.9
20260904052202 55 292 6.0 16.0 0.00 0.00 0.00 75 1012.0
20260904051656 55 291 7.0 16.0 0.00 0.00 0.00 75 1012.0
20260904051150 55 281 5.0 17.0 0.00 0.00 0.00 75 1011.9